Shannon, Ireland

1:55 PM IST on August 17, 2017 (GMT +0100)
Shannon

Weather History for EINN - October, 2010

Change the Weather History Date:

Saturday, October 30, 2010

  Actual Average Record
Temperature  
Mean Temperature 48 °F -  
Max Temperature 56 °F 51 °F 63 °F (2014)
Min Temperature 41 °F 40 °F 37 °F (2008)
Degree Days  
Heating Degree Days 16    
Moisture  
Dew Point 44 °F    
Average Humidity 89    
Maximum Humidity 100    
Minimum Humidity 72    
Precipitation  
Precipitation 0.00 in 0.12 in - ()
Sea Level Pressure  
Sea Level Pressure 29.23 in    
Wind  
Wind Speed 7 mph ()    
Max Wind Speed 10 mph    
Max Gust Speed -    
Visibility 6.9 miles    
Events Rain    
Averages and records for this station are not official NWS values.
T = Trace of Precipitation, MM = Missing Value Source: Averaged Metar Reports

Daily Weather History Graph

Daily Weather History Graph

Search for Another Location

Airport or City:

Trip Planner

Search our weather history database for the weather conditions in past years. The results will help you decide how hot, cold, wet, or windy it might be!

Date:

Astronomy

Oct. 30, 2010 Rise Set
Actual Time 8:28 AM IST 6:09 PM IST
Civil Twilight 7:52 AM IST 6:45 PM IST
Nautical Twilight 7:12 AM IST 7:25 PM IST
Astronomical Twilight 6:32 AM IST 8:05 PM IST
Moon No Moon Rise 3:02 PM IST (10/30)
Length of Visible Light 10h 52m
Length of Day
9h 40m
Waning Gibbous, 51% of the Moon is Illuminated
Oct 30
Waning Gibbous
Oct 30
Last Quarter
Nov 6
New
Nov 13
First Quarter
Nov 21
Full

Hourly Weather History & Observations

Time (IST) Temp. Windchill Dew Point Humidity Pressure Visibility Wind Dir Wind Speed Gust Speed Precip Events Conditions
12:00 AM 48.2 °F - 46.4 °F 93% 29.21 in 6.2 mi SSW 9.2 mph - N/A   Scattered Clouds
12:30 AM 48.2 °F - 46.4 °F 93% 29.21 in 6.2 mi SSW 10.4 mph - N/A   Mostly Cloudy
1:00 AM 47 °F - 46 °F 93% 29.23 in 12 mi SSW 8.9 mph - -   Partly Cloudy
1:00 AM 46.4 °F 41.9 °F 46.4 °F 100% 29.21 in 6.2 mi SSW 9.2 mph - N/A   Mostly Cloudy
1:30 AM 46.4 °F 41.9 °F 44.6 °F 93% 29.21 in 6.2 mi South 9.2 mph - N/A Rain Light Rain Showers
2:00 AM 46.4 °F 42.9 °F 44.6 °F 93% 29.21 in 6.2 mi SSW 6.9 mph - N/A   Scattered Clouds
2:30 AM 44.6 °F 40.2 °F 42.8 °F 93% 29.21 in 6.2 mi South 8.1 mph - N/A   Partly Cloudy
3:00 AM 44.6 °F 40.2 °F 42.8 °F 93% 29.21 in 6.2 mi South 8.1 mph - N/A   Partly Cloudy
3:30 AM 44.6 °F 42.2 °F 42.8 °F 93% 29.21 in 6.2 mi South 4.6 mph - N/A   Partly Cloudy
4:00 AM 42.8 °F 40.1 °F 42.8 °F 100% 29.21 in 6.2 mi SE 4.6 mph - N/A   Partly Cloudy
4:30 AM 42.8 °F 41.1 °F 41.0 °F 93% 29.21 in 6.2 mi ESE 3.5 mph - N/A   Partly Cloudy
5:00 AM 42.8 °F 40.1 °F 42.8 °F 100% 29.21 in 6.2 mi ESE 4.6 mph - N/A   Partly Cloudy
5:30 AM 42.8 °F 39.3 °F 42.8 °F 100% 29.21 in 6.2 mi SE 5.8 mph - N/A   Partly Cloudy
6:00 AM 41.0 °F 37.1 °F 41.0 °F 100% 29.21 in 6.2 mi SE 5.8 mph - N/A   Partly Cloudy
6:30 AM 42.8 °F 40.1 °F 41.0 °F 93% 29.21 in 6.2 mi ESE 4.6 mph - N/A   Partly Cloudy
7:00 AM 44 °F - 42 °F 88% 29.23 in 16 mi SE 6.7 mph - -   Partly Cloudy
7:00 AM 42.8 °F 39.3 °F 41.0 °F 93% 29.21 in 6.2 mi SE 5.8 mph - N/A   Partly Cloudy
7:30 AM 42.8 °F 38.6 °F 41.0 °F 93% 29.21 in 6.2 mi ESE 6.9 mph - N/A   Partly Cloudy
8:00 AM 42.8 °F 37.5 °F 41.0 °F 93% 29.21 in 6.2 mi SE 9.2 mph - N/A   Partly Cloudy
8:30 AM 42.8 °F 37.5 °F 41.0 °F 93% 29.24 in 6.2 mi ESE 9.2 mph - N/A   Scattered Clouds
9:00 AM 42.8 °F 38.0 °F 41.0 °F 93% 29.24 in 6.2 mi ESE 8.1 mph - N/A   Scattered Clouds
9:30 AM 42.8 °F 38.0 °F 41.0 °F 93% 29.24 in 6.2 mi ESE 8.1 mph - N/A   Mostly Cloudy
10:00 AM 42.8 °F 37.5 °F 42.8 °F 100% 29.24 in 6.2 mi ESE 9.2 mph - N/A   Scattered Clouds
10:30 AM 44.6 °F 39.2 °F 42.8 °F 93% 29.24 in 6.2 mi ESE 10.4 mph - N/A   Scattered Clouds
11:00 AM 44.6 °F 39.7 °F 42.8 °F 93% 29.24 in 6.2 mi ESE 9.2 mph - N/A   Scattered Clouds
11:30 AM 46.4 °F 41.9 °F 44.6 °F 93% 29.24 in 6.2 mi ESE 9.2 mph - N/A   Scattered Clouds
12:00 PM 50.0 °F - 46.4 °F 87% 29.24 in 6.2 mi ESE 6.9 mph - N/A   Scattered Clouds
12:30 PM 51.8 °F - 46.4 °F 82% 29.24 in 6.2 mi East 8.1 mph - N/A   Mostly Cloudy
1:00 PM 51 °F - 48 °F 85% 29.24 in 25 mi ESE 8.9 mph - -   Scattered Clouds
1:00 PM 51.8 °F - 48.2 °F 88% 29.24 in 6.2 mi ESE 8.1 mph - N/A   Scattered Clouds
1:30 PM 53.6 °F - 48.2 °F 82% 29.21 in 6.2 mi East 6.9 mph - N/A   Mostly Cloudy
2:00 PM 55.4 °F - 48.2 °F 77% 29.21 in 6.2 mi SE 8.1 mph - N/A   Mostly Cloudy
2:30 PM 55.4 °F - 48.2 °F 77% 29.21 in 6.2 mi SE 5.8 mph - N/A   Mostly Cloudy
3:00 PM 55.4 °F - 46.4 °F 72% 29.21 in 6.2 mi SE 9.2 mph - N/A   Mostly Cloudy
3:30 PM 55.4 °F - 46.4 °F 72% 29.21 in 6.2 mi ESE 8.1 mph - N/A   Mostly Cloudy
4:00 PM 55.4 °F - 46.4 °F 72% 29.21 in 6.2 mi East 5.8 mph - N/A   Mostly Cloudy
4:30 PM 55.4 °F - 46.4 °F 72% 29.21 in 6.2 mi ESE 6.9 mph - N/A   Mostly Cloudy
5:00 PM 55.4 °F - 48.2 °F 77% 29.21 in 6.2 mi ESE 5.8 mph - N/A   Mostly Cloudy
5:30 PM 53.6 °F - 48.2 °F 82% 29.21 in 6.2 mi East 5.8 mph - N/A   Mostly Cloudy
6:00 PM 51.8 °F - 48.2 °F 88% 29.21 in 6.2 mi East 6.9 mph - N/A   Mostly Cloudy
6:30 PM 51.8 °F - 46.4 °F 82% 29.24 in 6.2 mi ENE 5.8 mph - N/A   Mostly Cloudy
7:00 PM 52 °F - 48 °F 81% 29.24 in 19 mi ENE 6.7 mph - -   Scattered Clouds
7:00 PM 51.8 °F - 48.2 °F 88% 29.24 in 6.2 mi ENE 5.8 mph - N/A   Scattered Clouds
7:30 PM 50.0 °F - 44.6 °F 82% 29.24 in 6.2 mi NE 8.1 mph - N/A   Scattered Clouds
8:00 PM 48.2 °F - 46.4 °F 93% 29.24 in - NE 6.9 mph - N/A   Clear
8:30 PM 46.4 °F 43.5 °F 42.8 °F 87% 29.24 in - NE 5.8 mph - N/A   Clear
9:00 PM 44.6 °F 40.2 °F 42.8 °F 93% 29.24 in - NE 8.1 mph - N/A   Clear
9:30 PM 46.4 °F 41.9 °F 44.6 °F 93% 29.27 in - NE 9.2 mph - N/A   Clear
10:00 PM 44.6 °F 39.7 °F 42.8 °F 93% 29.27 in - NE 9.2 mph - N/A   Clear
10:30 PM 44.6 °F 39.7 °F 42.8 °F 93% 29.27 in - NNE 9.2 mph - N/A   Clear
11:00 PM 44.6 °F 39.7 °F 42.8 °F 93% 29.27 in - NE 9.2 mph - N/A   Clear
11:30 PM 42.8 °F 38.0 °F 42.8 °F 100% 29.27 in - NNE 8.1 mph - N/A   Clear